Stations météo

Publicité
Bale-Mulhouse, France (7299): Température de l'air & dewpoint: 10.07.2019 00:00:00 - 16.07.2019 00:00:00 (CEST)Bale-Mulhouse, France (7299): Température de l'air 5cm: 10.07.2019 00:00:00 - 16.07.2019 00:00:00 (CEST)Bale-Mulhouse, France (7299): Température de l'air -20cm & Température de l'air -100cm: 10.07.2019 00:00:00 - 16.07.2019 00:00:00 (CEST)Bale-Mulhouse, France (7299): Vitesse du vent & gusts: 10.07.2019 00:00:00 - 16.07.2019 00:00:00 (CEST)Bale-Mulhouse, France (7299): Direction du vent: 10.07.2019 00:00:00 - 16.07.2019 00:00:00 (CEST)Bale-Mulhouse, France (7299): reduced air pressure: 10.07.2019 00:00:00 - 16.07.2019 00:00:00 (CEST)Bale-Mulhouse, France (7299): visibility: 10.07.2019 00:00:00 - 16.07.2019 00:00:00 (CEST)Bale-Mulhouse, France (7299): Quantités de précipitations: 10.07.2019 00:00:00 - 16.07.2019 00:00:00 (CEST)
Date & Time tt [°C] td [°C] tt 5cm [°C] tt -20cm [°C] tt -100cm [°C] ff [km/h] ff [knt] fx [km/h] fx [knt] dd ppp [hPa] vv [km] rr [mm]
16.07.2019 00:00:00 - - - - - - - - - - - - -
15.07.2019 23:00:00 15,7 12,4 13,3 23,2 21,7 6 3 16 8 WNW 1016,9 20 0,0
15.07.2019 22:00:00 17,7 13,0 15,1 23,3 21,7 7 4 16 9 NW 1016,4 20 0,0
15.07.2019 21:00:00 20,5 13,0 19,8 23,3 21,7 12 7 26 14 NNW 1015,6 20 0,0
15.07.2019 20:00:00 22,5 13,3 22,9 23,2 21,7 19 10 35 19 N 1014,9 27 0,0
15.07.2019 19:00:00 23,3 13,2 25,1 23,1 21,7 21 12 39 21 NNW 1014,6 20 0,0
15.07.2019 18:00:00 23,8 13,6 24,0 22,9 21,7 20 11 39 21 NNW 1014,7 20 0,0
15.07.2019 17:00:00 23,5 13,1 23,9 22,6 21,7 19 10 35 19 NNW 1014,9 20 0,0
15.07.2019 16:00:00 23,2 13,4 24,6 22,3 21,7 19 10 36 19 NNW 1015,3 20 0,0
15.07.2019 15:00:00 22,1 13,4 23,4 22,0 21,7 20 11 34 19 N 1015,3 20 0,0
15.07.2019 14:00:00 21,5 13,7 23,1 21,8 21,7 18 10 34 19 N 1015,5 20 0,0
15.07.2019 13:00:00 20,5 13,2 20,7 21,7 21,7 19 10 34 18 N 1015,8 15 0,0
15.07.2019 12:00:00 18,2 12,9 18,5 21,6 21,8 23 12 31 17 NNW 1016,1 15 0,0
15.07.2019 11:00:00 16,6 12,5 17,7 21,6 21,7 20 11 35 19 N 1016,5 15 0,0
15.07.2019 10:00:00 15,7 12,3 15,7 21,7 21,7 18 10 32 18 NNW 1016,4 15 0,0
15.07.2019 09:00:00 14,7 12,2 13,7 21,9 21,7 16 9 32 17 N 1016,3 15 0,0
15.07.2019 08:00:00 13,3 11,9 13,0 22,1 21,8 18 10 27 15 NNW 1016,2 15 0,0
15.07.2019 07:00:00 12,9 11,8 12,5 22,3 21,7 13 7 31 17 NW 1015,8 9 0,0
15.07.2019 06:00:00 12,7 11,8 12,6 22,5 21,8 19 10 32 17 NNW 1015,6 15 0,0
15.07.2019 05:00:00 13,1 12,2 12,9 22,7 21,8 16 9 38 21 NNW 1015,5 15 0,0
15.07.2019 04:00:00 13,3 12,4 13,0 23,0 21,8 21 11 33 18 NNW 1015,3 19 0,0
15.07.2019 03:00:00 13,8 13,0 13,4 23,2 21,8 18 10 30 16 NNW 1015,6 11 1,2
15.07.2019 02:00:00 14,3 13,8 14,2 23,4 21,8 16 9 22 12 NNW 1016,0 2,1 2,8
15.07.2019 01:00:00 15,0 14,4 14,7 23,6 21,8 8 4 23 12 NNW 1016,2 7 0,2
15.07.2019 00:00:00 15,1 14,5 14,7 23,8 21,8 14 7 22 12 N 1016,1 5 0,2
14.07.2019 23:00:00 15,2 14,4 14,6 24,0 21,8 12 7 25 13 N 1016,5 12 0,2
14.07.2019 22:00:00 15,4 14,3 14,8 24,2 21,8 16 9 28 15 N 1016,2 8 0,0
14.07.2019 21:00:00 15,3 14,7 14,8 24,3 21,8 13 7 28 15 N 1015,9 5 0,8
14.07.2019 20:00:00 15,3 14,2 14,8 24,4 21,8 22 12 36 20 NW 1015,7 8 0,6
14.07.2019 19:00:00 16,1 13,8 15,5 24,3 21,8 18 10 50 27 NW 1015,4 30 0,0
14.07.2019 18:00:00 18,4 13,5 19,3 24,1 21,8 27 15 48 26 NNW 1014,3 30 0,0
14.07.2019 17:00:00 19,7 13,4 22,4 23,8 21,8 32 17 55 30 N 1014,2 30 0,0
14.07.2019 16:00:00 22,2 13,8 24,9 23,5 21,8 33 18 63 34 N 1013,4 30 0,0
14.07.2019 15:00:00 22,6 14,7 26,6 23,0 21,8 34 19 54 29 N 1013,4 30 0,0
14.07.2019 14:00:00 24,6 13,5 25,1 22,7 21,8 18 10 30 16 N 1013,4 30 0,0
14.07.2019 13:00:00 23,6 11,9 27,6 22,3 21,8 15 8 24 13 NNE 1014,3 30 0,0
14.07.2019 12:00:00 22,1 12,4 23,6 22,1 21,8 11 6 30 16 NW 1015,0 30 0,0
14.07.2019 11:00:00 20,7 12,7 22,9 22,0 21,8 13 7 27 15 N 1015,4 30 0,0
14.07.2019 10:00:00 19,5 12,3 19,8 22,0 21,8 14 7 24 13 N 1015,9 15 0,0
14.07.2019 09:00:00 17,2 11,9 19,7 22,1 21,8 6 4 15 8 NW 1016,1 15 0,0
14.07.2019 08:00:00 15,6 12,2 14,5 22,3 21,8 2 1 5 3 E 1016,3 15 0,0
14.07.2019 07:00:00 11,6 11,1 7,8 22,5 21,9 4 2 5 3 SW 1016,8 15 0,0
14.07.2019 06:00:00 10,0 9,7 7,5 22,7 21,8 3 1 6 3 S 1017,2 12 0,2
14.07.2019 05:00:00 9,9 9,4 8,0 23,0 21,8 4 2 5 3 W 1017,4 13 0,0
14.07.2019 04:00:00 10,4 9,8 8,0 23,2 21,9 4 2 5 3 W 1017,8 10 0,0
14.07.2019 03:00:00 10,9 9,8 9,0 23,4 21,9 4 2 7 4 WNW 1017,9 13 0,0
14.07.2019 02:00:00 11,8 10,4 9,8 23,6 21,8 3 2 5 3 SW 1018,0 20 0,0
14.07.2019 01:00:00 13,0 11,9 11,0 23,8 21,8 0 0 9 5 N 1018,2 21 0,0
14.07.2019 00:00:00 14,2 12,8 11,9 24,0 21,9 0 0 7 4 N 1018,2 40 0,0
13.07.2019 23:00:00 15,9 12,8 13,6 24,1 21,8 5 3 9 5 SW 1018,1 40 0,0
13.07.2019 22:00:00 15,7 12,6 13,7 24,2 21,8 8 4 9 5 WNW 1018,2 40 0,0
13.07.2019 21:00:00 19,5 11,8 17,7 24,3 21,9 6 3 21 11 NNW 1017,3 40 0,0
13.07.2019 20:00:00 22,2 11,0 22,1 24,3 21,9 10 6 21 11 N 1016,8 40 0,0
13.07.2019 19:00:00 22,6 11,0 23,6 24,2 21,8 11 6 24 13 N 1016,6 40 0,0
13.07.2019 18:00:00 23,3 10,7 23,8 24,1 21,9 13 7 27 15 NNE 1016,6 40 0,0
13.07.2019 17:00:00 22,4 10,8 23,7 24,0 21,9 14 7 23 12 N 1017,0 40 0,0
13.07.2019 16:00:00 23,5 11,9 24,7 23,8 21,8 14 8 30 16 NE 1017,0 40 0,0
13.07.2019 15:00:00 23,3 10,7 23,6 23,6 21,9 11 6 26 14 N 1017,0 35 0,0
13.07.2019 14:00:00 23,0 11,1 25,3 23,3 21,9 13 7 29 16 NW 1017,4 35 0,0
13.07.2019 13:00:00 23,2 10,9 25,6 23,0 21,9 6 4 24 13 W 1017,5 30 0,0
13.07.2019 12:00:00 21,6 11,3 25,9 22,8 21,9 9 5 27 14 N 1017,9 30 0,0
13.07.2019 11:00:00 20,9 10,4 21,7 22,7 21,9 13 7 24 13 NNW 1018,0 17 0,0
13.07.2019 10:00:00 19,8 11,6 20,4 22,7 21,9 9 5 17 9 NNW 1018,2 17 0,0
13.07.2019 09:00:00 18,8 15,1 19,8 22,8 21,9 3 1 7 4 NW 1018,1 17 0,0
13.07.2019 08:00:00 16,1 15,5 16,4 23,0 21,9 4 2 6 4 W 1018,2 12 0,0
13.07.2019 07:00:00 15,0 14,5 12,0 23,2 21,9 3 2 16 8 ESE 1017,8 10 0,0
13.07.2019 06:00:00 14,2 13,7 11,9 23,4 21,9 2 1 9 5 ENE 1017,7 9 0,0
13.07.2019 05:00:00 14,7 14,2 13,4 23,6 21,9 6 4 10 5 SW 1017,2 12 0,0
13.07.2019 04:00:00 14,8 14,2 13,6 23,8 21,9 5 3 10 6 NW 1016,8 12 0,0
13.07.2019 03:00:00 15,9 14,9 15,2 24,0 21,9 7 4 14 8 NE 1016,6 31 0,0
13.07.2019 02:00:00 15,7 14,6 14,8 24,1 21,9 4 2 27 15 SSE 1016,7 6 3,4
13.07.2019 01:00:00 17,3 13,4 16,8 24,3 21,9 11 6 46 25 N 1016,2 55 0,0
13.07.2019 00:00:00 19,7 12,0 18,1 24,4 21,9 23 12 36 20 N 1015,3 30 0,0
12.07.2019 23:00:00 19,5 11,0 18,1 24,4 22,0 13 7 21 11 WSW 1014,1 30 0,0
12.07.2019 22:00:00 22,5 10,3 21,3 24,5 22,0 14 8 26 14 W 1013,5 30 0,0
12.07.2019 21:00:00 23,7 10,4 22,9 24,4 22,0 15 8 31 17 W 1013,0 30 0,0
12.07.2019 20:00:00 25,1 10,9 25,6 24,3 22,0 22 12 40 22 W 1012,2 20 0,0
12.07.2019 19:00:00 26,2 12,6 26,7 24,1 22,0 23 12 44 24 W 1011,5 20 0,0
12.07.2019 18:00:00 26,7 13,1 28,7 23,8 22,0 27 15 53 29 W 1011,3 20 0,0
12.07.2019 17:00:00 27,3 13,3 29,4 23,5 22,0 26 14 45 24 W 1011,2 20 0,0
12.07.2019 16:00:00 27,0 13,4 30,1 23,1 22,0 25 14 48 26 W 1011,7 20 0,0
12.07.2019 15:00:00 27,8 12,6 30,4 22,7 22,0 22 12 44 24 W 1011,6 20 0,0
12.07.2019 14:00:00 26,9 12,5 29,0 22,4 22,1 20 11 43 23 W 1011,9 20 0,0
12.07.2019 13:00:00 25,6 14,7 27,2 22,2 22,1 9 5 27 14 SSE 1012,5 20 0,0
12.07.2019 12:00:00 23,3 13,5 23,2 22,1 22,1 13 7 24 13 SE 1013,3 20 0,0
12.07.2019 11:00:00 21,6 13,8 21,9 22,1 22,1 16 8 24 13 SSE 1013,4 20 0,0
12.07.2019 10:00:00 19,9 13,4 18,9 22,1 22,1 8 4 14 7 SSE 1014,1 20 0,0
12.07.2019 09:00:00 18,3 12,9 18,1 22,1 22,1 10 6 19 11 SSE 1013,9 20 0,0
12.07.2019 08:00:00 17,1 13,8 15,4 22,2 22,1 10 5 16 9 SSE 1013,7 20 0,0
12.07.2019 07:00:00 15,6 13,3 14,4 22,3 22,1 10 5 16 8 S 1014,1 20 0,0
12.07.2019 06:00:00 15,2 12,9 14,5 22,5 22,1 9 5 18 10 SSE 1014,3 17 0,2
12.07.2019 05:00:00 15,5 13,0 15,0 22,6 22,2 9 5 16 9 S 1014,2 20 0,0
12.07.2019 04:00:00 15,5 13,5 14,9 22,7 22,2 9 5 16 9 S 1014,3 25 0,0
12.07.2019 03:00:00 15,3 13,7 14,2 22,9 22,2 9 5 16 9 S 1014,5 21 0,0
12.07.2019 02:00:00 15,2 13,4 13,9 23,0 22,2 9 5 16 8 S 1014,8 17 0,0
12.07.2019 01:00:00 15,6 14,0 12,8 23,2 22,2 9 5 14 8 S 1015,1 20 0,0
12.07.2019 00:00:00 15,3 13,8 13,0 23,3 22,2 5 3 10 5 SSE 1015,5 15 0,0
11.07.2019 23:00:00 16,0 13,8 14,6 23,4 22,2 6 3 11 6 S 1015,7 20 0,0
11.07.2019 22:00:00 16,8 13,7 15,4 23,5 22,2 6 4 10 5 S 1015,5 25 0,0
11.07.2019 21:00:00 17,7 13,0 16,8 23,5 22,2 7 4 16 9 S 1015,1 30 0,0
11.07.2019 20:00:00 19,2 13,1 19,3 23,5 22,2 10 5 16 8 S 1015,1 35 0,0
11.07.2019 19:00:00 19,5 12,5 20,5 23,5 22,2 7 4 11 6 S 1015,2 40 0,0
11.07.2019 18:00:00 19,6 12,1 20,4 23,5 22,2 3 2 9 5 W 1014,9 40 0,0
11.07.2019 17:00:00 19,2 11,5 19,3 23,5 22,2 2 1 12 6 E 1015,0 30 0,0
11.07.2019 16:00:00 18,9 13,1 18,3 23,5 22,2 2 1 9 5 E 1015,1 30 0,2
11.07.2019 15:00:00 19,0 12,7 18,2 23,5 22,2 8 5 22 12 NNW 1015,5 30 0,0
11.07.2019 14:00:00 20,6 10,4 22,4 23,4 22,2 15 8 23 12 NNW 1014,9 30 0,0
11.07.2019 13:00:00 20,9 11,0 22,5 23,4 22,2 11 6 21 11 NNE 1015,0 30 0,0
11.07.2019 12:00:00 20,5 10,3 22,0 23,3 22,2 7 4 17 9 NW 1015,5 30 0,0
11.07.2019 11:00:00 20,0 9,5 20,5 23,3 22,2 8 5 14 8 ESE 1014,9 40 0,0
11.07.2019 10:00:00 18,8 10,1 18,7 23,3 22,2 7 4 11 6 S 1015,4 40 0,0
11.07.2019 09:00:00 17,2 9,6 17,2 23,5 22,2 6 3 11 6 ESE 1015,2 40 0,0
11.07.2019 08:00:00 16,3 11,0 15,3 23,6 22,2 5 3 11 6 NE 1015,5 40 0,0
11.07.2019 07:00:00 14,2 10,4 10,7 23,9 22,2 8 4 14 7 S 1015,5 40 0,0
11.07.2019 06:00:00 11,9 10,0 9,5 24,1 22,2 2 1 9 5 S 1016,0 40 0,0
11.07.2019 05:00:00 11,5 9,4 9,6 24,4 22,3 5 3 7 4 SSW 1016,0 30 0,0
11.07.2019 04:00:00 11,8 9,9 9,0 24,6 22,3 5 3 6 3 SW 1016,1 42 0,0
11.07.2019 03:00:00 11,7 9,4 9,0 24,8 22,2 3 1 4 2 S 1016,7 41 0,0
11.07.2019 02:00:00 12,7 9,9 10,6 25,0 22,2 0 0 6 3 N 1017,2 53 0,0
11.07.2019 01:00:00 13,0 10,2 10,1 25,2 22,2 3 1 4 2 S 1017,5 55 0,0
11.07.2019 00:00:00 13,0 9,8 10,5 25,5 22,2 4 2 9 5 S 1017,8 40 0,0
10.07.2019 23:00:00 14,0 10,2 11,3 25,6 22,2 5 3 12 6 SW 1017,4 40 0,0
10.07.2019 22:00:00 16,0 9,9 12,7 25,7 22,3 5 3 9 5 WSW 1017,3 40 0,0
10.07.2019 21:00:00 20,0 9,0 17,6 25,7 22,3 8 4 16 9 NW 1016,8 40 0,0
10.07.2019 20:00:00 23,9 7,9 25,1 25,6 22,2 9 5 24 13 NNE 1016,3 35 0,0
10.07.2019 19:00:00 24,8 7,0 27,2 25,4 22,3 10 6 30 16 NNE 1016,2 35 0,0
10.07.2019 18:00:00 24,7 7,3 29,6 25,0 22,3 8 4 24 13 ENE 1016,5 31 0,0
10.07.2019 17:00:00 24,8 7,4 30,1 24,6 22,3 10 5 24 13 NW 1016,5 25 0,0
10.07.2019 16:00:00 24,4 7,9 29,6 24,2 22,3 9 5 23 13 NNE 1016,7 25 0,0
10.07.2019 15:00:00 23,2 7,3 27,5 23,8 22,3 11 6 27 14 NNW 1017,2 35 0,0
10.07.2019 14:00:00 22,7 8,4 24,9 23,4 22,3 11 6 29 16 N 1017,6 40 0,0
10.07.2019 13:00:00 21,6 9,2 24,0 23,0 22,3 8 5 24 13 N 1018,1 30 0,0
10.07.2019 12:00:00 20,0 7,7 24,5 22,8 22,3 10 6 20 11 N 1018,7 30 0,0
10.07.2019 11:00:00 18,9 7,9 22,4 22,7 22,3 8 5 19 11 NE 1019,1 30 0,0
10.07.2019 10:00:00 17,1 8,0 17,8 22,6 22,3 6 3 17 9 WNW 1019,3 30 0,0
10.07.2019 09:00:00 15,1 7,6 17,6 22,7 22,3 6 3 15 8 NW 1019,5 30 0,0
10.07.2019 08:00:00 12,9 7,6 14,5 23,0 22,3 9 5 16 8 NNW 1019,7 25 0,0
10.07.2019 07:00:00 10,7 7,2 6,6 23,2 22,3 2 1 6 4 SSW 1019,8 30 0,0
10.07.2019 06:00:00 8,3 6,4 6,2 23,5 22,4 6 3 10 5 WSW 1019,9 30 0,0
10.07.2019 05:00:00 9,8 6,9 7,0 23,7 22,3 5 3 11 6 W 1019,6 32 0,0
10.07.2019 04:00:00 10,1 6,6 7,9 23,9 22,4 10 5 16 9 NW 1019,4 29 0,0
10.07.2019 03:00:00 11,3 6,8 9,2 24,1 22,3 10 5 12 7 NW 1019,3 19 0,0
10.07.2019 02:00:00 13,6 6,9 11,1 24,4 22,4 9 5 16 8 NW 1019,0 30 0,0
10.07.2019 01:00:00 13,3 6,4 12,1 24,6 22,4 14 7 24 13 NNW 1018,8 45 0,0
10.07.2019 00:00:00 14,8 6,1 14,0 24,8 22,4 17 9 29 16 NNW 1018,2 30 0,0

tt = Température de l'air
td = dewpoint
tt 5cm = Température de l'air 5cm
tt -20cm = Température de l'air -20cm
tt -100cm = Température de l'air -100cm
ff = Vitesse du vent
fx = gusts
dd = Direction du vent
ppp = reduced air pressure
vv = visibility
rr = Quantités de précipitations

stations d'obs. à proximité